AO-07 1 07530U 74089B 17131.53938664 -.00000049 00000-0 -29413-4 0 9998 2 07530 101.6273 100.9508 0012395 034.9836 078.7926 12.53626859944039 UO-11 1 14781U 84021B 17131.59508517 .00000069 00000-0 14842-4 0 9997 2 14781 097.7009 178.6505 0007561 328.5310 031.5451 14.82890073763926 LO-19 1 20442U 90005G 17131.55291174 -.00000005 00000-0 14347-4 0 9992 2 20442 098.5742 068.4429 0010592 255.0775 104.9236 14.32858350426310 HUBBLE 1 20580U 90037B 17131.57336071 .00000476 00000-0 18370-4 0 9999 2 20580 028.4695 249.4554 0002846 135.1079 331.8030 15.08759380284660 MET-2/21 1 22782U 93055A 17131.51947704 .00000067 00000-0 47322-4 0 9998 2 22782 082.5517 052.6845 0022504 170.3953 312.1832 13.83801558196358 AO-27 1 22825U 93061C 17131.45848341 -.00000009 00000-0 14322-4 0 9994 2 22825 098.8091 096.5951 0009554 079.8983 280.3276 14.29995107231885 IO-26 1 22826U 93061D 17131.49796891 -.00000006 00000-0 15301-4 0 9996 2 22826 098.8033 096.7214 0010047 071.2814 288.9458 14.30323598232084 FO-29 1 24278U 96046B 17131.56212490 .00000001 00000-0 34073-4 0 9992 2 24278 098.5694 019.6854 0351388 072.3458 291.5724 13.53076250023676 NOAA-15 1 25338U 98030A 17131.58312456 .00000032 00000-0 32285-4 0 9997 2 25338 098.7829 142.4190 0009694 317.8500 042.1933 14.25791044987529 GO-32 1 25397U 98043D 17131.43677516 -.00000022 00000-0 94535-5 0 9998 2 25397 098.6077 074.5534 0002420 097.4543 262.6911 14.23621255978342 ISS 1 25544U 98067A 17131.59792321 .00002092 00000-0 39024-4 0 9996 2 25544 051.6432 220.6807 0005403 145.8482 354.3636 15.54003729056065 NO-44 1 26931U 01043C 17131.33064249 -.00000020 00000-0 24251-4 0 9994 2 26931 067.0506 186.2915 0008010 270.9632 089.0551 14.30458988815009 SO-50 1 27607U 02058C 17131.60246948 -.00000011 00000-0 18843-4 0 9990 2 27607 064.5558 237.3559 0031009 115.3422 245.0897 14.75319966773588 CO-55 1 27844U 03031E 17131.55769620 .00000047 00000-0 40803-4 0 9995 2 27844 098.6902 141.0965 0011016 093.4705 266.7733 14.22034509719072 CO-57 1 27848U 03031J 17131.54754537 .00000031 00000-0 34124-4 0 9991 2 27848 098.6995 141.3297 0010898 101.7714 258.4687 14.21649393718964 RS-22 1 27939U 03042A 17131.60652823 .00000092 00000-0 24923-4 0 9999 2 27939 097.9336 277.5379 0012565 348.6227 075.8500 14.66557754727810 NOAA-18 1 28654U 05018A 17131.57001871 .00000014 00000-0 32726-4 0 9990 2 28654 099.1847 152.8852 0014578 170.2579 189.8877 14.12336240616997 CO-58 1 28895U 05043F 17131.18235487 .00000136 00000-0 35069-4 0 9992 2 28895 097.8608 295.1890 0015432 259.6651 100.2812 14.63385321615074 Falconsat-3 1 30776U 07006E 17130.89195352 .00002084 00000-0 67382-4 0 9994 2 30776 035.4365 303.1863 0003596 338.1176 021.9396 15.32061098562533 CO-65 1 32785U 08021C 17131.45618350 .00000222 00000-0 29969-4 0 9996 2 32785 097.5691 157.4013 0011608 292.8746 067.1245 14.87865874489362 AAUSAT2 1 32788U 08021F 17131.59415643 .00000560 00000-0 57912-4 0 9998 2 32788 097.5621 168.9524 0010411 249.9229 110.0871 14.93825127490114 DO-64 1 32789U 08021G 17131.38596791 .00001556 00000-0 11461-3 0 9994 2 32789 097.5616 190.3893 0012034 221.5419 138.4894 15.04745198491333 CO-66 1 32791U 08021J 17131.31340749 .00000301 00000-0 36504-4 0 9993 2 32791 097.5663 161.5149 0011843 276.5189 083.4681 14.90188895489578 RS-30 1 32953U 08025A 17131.58225872 -.00000002 00000-0 -85375-4 0 9995 2 32953 082.5026 262.4104 0018601 008.6225 351.5171 12.43076336406878 PRISM 1 33493U 09002B 17131.56830116 .00001181 00000-0 11190-3 0 9992 2 33493 098.1747 012.4478 0014182 198.7470 161.3219 14.95624939450305 NOAA-19 1 33591U 09005A 17131.56787793 .00000068 00000-0 62076-4 0 9999 2 33591 099.0896 097.8793 0014410 019.4517 340.7201 14.12178308425221 TISAT-1 1 36799U 10035E 17131.28508875 .00000475 00000-0 54804-4 0 9990 2 36799 098.0565 253.2766 0013877 089.3229 270.9578 14.90354511370088 JUGNU 1 37839U 11058B 17130.85993514 .00000318 00000-0 27868-4 0 9998 2 37839 019.9621 316.8123 0018947 131.7200 359.6533 14.12581799288309 SRMSAT 1 37841U 11058D 17130.86239032 .00000306 00000-0 23306-4 0 9990 2 37841 019.9734 357.7106 0011818 031.8049 063.5642 14.10573245288007 AO-71 1 37854U 11061E 17131.46328918 .00001532 00000-0 89772-4 0 9998 2 37854 101.7086 346.4096 0167962 183.6318 176.3687 15.03943851300960 HRBE 1 37855U 11061F 17131.18146506 .00001330 00000-0 77709-4 0 9992 2 37855 101.7219 343.8124 0181138 190.7309 169.0014 15.02902161300761 ALMASAT-1 1 38078U 12006B 17131.59647845 .00011137 36544-5 13331-3 0 9990 2 38078 069.4410 230.7004 0315912 344.2312 014.9191 15.20720839279222 HORYU-2 1 38340U 12025D 17131.53120953 .00000207 00000-0 38727-4 0 9999 2 38340 098.3764 134.1622 0012770 052.9623 307.2751 14.75317230257473 RS-40 1 38735U 12041C 17131.57476990 .00000013 00000-0 22803-4 0 9997 2 38735 082.4757 347.0212 0017559 106.8814 253.4192 12.42574258217124 BEESAT-3 1 39134U 13015E 17130.98807347 .00001063 00000-0 61784-4 0 9998 2 39134 064.8673 346.5195 0034050 278.1355 081.5909 15.17679186223451 BEESAT-2 1 39136U 13015G 17131.40876489 .00000670 00000-0 45812-4 0 9998 2 39136 064.8706 355.3429 0031404 288.6657 071.1060 15.14988515223313 ZACUBE-1 1 39417U 13066B 17131.60105790 .00000186 00000-0 30099-4 0 9991 2 39417 097.6330 175.6102 0060102 031.0888 329.3859 14.80686723187362 TRITON-1 1 39427U 13066M 17131.57414889 .00000174 00000-0 35541-4 0 9994 2 39427 097.6394 149.3823 0115976 105.8886 255.5138 14.67436945185484 GOMX-1 1 39430U 13066Q 17131.54612885 .00000173 00000-0 40189-4 0 9994 2 39430 097.6647 133.3786 0152543 158.2219 202.5562 14.58846776184404 LO-74 1 39440U 13066AA 17131.55556504 .00000208 00000-0 36108-4 0 9996 2 39440 097.6319 165.0333 0082155 059.9185 301.0139 14.75427914185494 AO-73 1 39444U 13066AE 17131.59873600 .00000253 00000-0 37961-4 0 9991 2 39444 097.6345 176.6149 0059202 028.0555 332.3828 14.81413824185602 SPROUT 1 39770U 14029E 17131.53794332 .00000753 00000-0 91950-4 0 9994 2 39770 097.8702 231.2737 0010876 088.9485 271.2996 14.86170855160693 DUCHIFAT-1 1 40021U 14033M 17131.49416908 .00000440 00000-0 51666-4 0 9998 2 40021 097.9206 044.6036 0014597 064.6143 295.6584 14.89845879157134 NANOSATCBR1 1 40024U 14033Q 17131.27812979 .00000319 00000-0 39674-4 0 9995 2 40024 097.9168 043.3326 0013867 066.3533 293.9138 14.89177209156537 EO-79 1 40025U 14033R 17131.57414286 .00000274 00000-0 35606-4 0 9999 2 40025 097.9150 042.7240 0014019 067.8438 292.4265 14.88388202156538 DTUSAT-2 1 40030U 14033W 17131.30113118 .00000270 00000-0 35481-4 0 9993 2 40030 097.9117 041.6024 0013416 063.7359 296.5235 14.88012376156451 EO-80 1 40032U 14033Y 17131.47622830 .00000262 00000-0 34700-4 0 9993 2 40032 097.9124 041.7837 0013398 063.6973 296.5618 14.87947270156469 ANTELSAT 1 40034U 14033AA 17131.61882542 .00000224 00000-0 41102-4 0 9991 2 40034 097.8642 016.6744 0060359 051.3688 309.2902 14.73673072155007 VELOX-1 1 40057U 14034E 17131.51478413 .00000312 00000-0 51798-4 0 9994 2 40057 098.1860 231.1848 0011526 168.7306 191.4165 14.77090447154340 DAURIA DX 1 1 40071U 14037C 17131.51267110 .00000092 00000-0 19224-4 0 9996 2 40071 098.3333 241.1318 0008659 162.1724 197.9790 14.81002213153546 UKUBE-1 1 40074U 14037F 17131.53287465 .00000276 00000-0 40696-4 0 9997 2 40074 098.3420 244.8142 0005309 155.5683 204.5777 14.83468059153748 HODOYOSHI-1 1 40299U 14070B 17131.45165597 .00000545 00000-0 26753-4 0 9992 2 40299 097.4041 214.7488 0012166 215.8460 273.0148 15.22186126139357 CHUBUSAT-1 1 40300U 14070C 17131.51370966 .00000597 00000-0 30151-4 0 9994 2 40300 097.3971 212.0796 0019360 227.0863 259.0122 15.20778598139218 QSAT-EOS 1 40301U 14070D 17131.47805091 .00001598 00000-0 70345-4 0 9993 2 40301 097.3903 212.0005 0026559 223.9498 253.4904 15.23023866139247 FIREBIRD FU3 1 40377U 15003B 17131.42705621 .00002597 00000-0 11354-3 0 9990 2 40377 099.1210 308.0637 0137726 123.9810 237.4593 15.15172693125430 FIREBIRD FU4 1 40378U 15003C 17131.55189568 .00002532 00000-0 11069-3 0 9993 2 40378 099.1212 308.2480 0137903 123.4819 237.9677 15.15195919125458 GRIFEX 1 40379U 15003D 17131.27946638 .00001865 00000-0 87411-4 0 9995 2 40379 099.1227 305.8570 0143539 131.4315 229.9348 15.12793042125308 NO-84 1 40654U 15025D 17131.21291051 .00006350 00000-0 12305-3 0 04427 2 40654 054.9964 041.7874 0184683 171.8302 188.5804 15.32862880074223 NO-83 1 40655U 15025E 17131.27034236 .00010231 00000-0 16153-3 0 04938 2 40655 054.9841 019.5145 0152970 184.0242 175.9570 15.42034790074520 DEORBITSAIL 1 40719U 15032E 17131.58280813 .00000404 00000-0 66083-4 0 9995 2 40719 097.9845 025.7912 0015023 261.5161 098.4346 14.76017421098929 NUDT-PHONESAT 1 40900U 15049B 17131.55267139 .00002040 00000-0 99973-4 0 9990 2 40900 097.4430 140.0000 0014003 001.5780 358.5496 15.19201213090897 XW-2A 1 40903U 15049E 17131.57198158 .00001867 00000-0 51088-4 0 9990 2 40903 097.4240 156.8235 0016137 042.8633 317.3867 15.38557295092015 XW-2C 1 40906U 15049H 17131.57175187 .00000650 00000-0 38840-4 0 9990 2 40906 097.4551 137.7957 0014837 348.1295 011.9585 15.14465571090698 XW-2D 1 40907U 15049J 17131.55758536 .00000701 00000-0 41512-4 0 9991 2 40907 097.4520 137.5535 0014169 346.6333 013.4521 15.14563681090697 LILACSAT-2 1 40908U 15049K 17131.58436626 .00000348 00000-0 23284-4 0 9991 2 40908 097.4623 137.3900 0015634 343.4309 016.6409 15.13075779090631 XW-2F 1 40910U 15049M 17131.58067943 .00001048 00000-0 58852-4 0 9993 2 40910 097.4541 138.2019 0014903 344.0502 016.0259 15.15410994090736 XW-2B 1 40911U 15049N 17131.56278786 .00000687 00000-0 40764-4 0 9992 2 40911 097.4563 137.9160 0014070 346.9972 013.0895 15.14527738090592 DCBB 1 40912U 15049P 17131.56250152 .00001277 00000-0 66960-4 0 9992 2 40912 097.4513 139.9183 0015006 336.7927 139.6054 15.17497991090730 TW-1C 1 40926U 15051B 17131.61389115 .00005617 00000-0 13282-3 0 9998 2 40926 097.2332 171.4649 0010116 308.4296 172.9744 15.42171238091280 TW-1A 1 40928U 15051D 17131.41585065 .00002875 00000-0 84545-4 0 9994 2 40928 097.2306 167.8919 0011929 339.3043 145.4939 15.35842189091056 IO-86 1 40931U 15052B 17131.49907010 .00000724 00000-0 11905-4 0 9996 2 40931 005.9990 134.3314 0012987 082.4385 277.7248 14.76527273087531 GomX-3 1 40949U 98067HA 16292.18357804 .08527750 12374-4 77882-3 0 9992 2 40949 51.6055 106.7696 0006699 286.1344 73.8944 16.38002265 59645 LQSat 1 40958U 15057A 17131.49717820 .00000020 00000-0 10845-4 0 9999 2 40958 097.9793 207.4542 0017949 179.4431 180.6798 14.72961528085721 AO-85 1 40967U 15058D 17131.09275289 .00000178 00000-0 39946-4 0 04794 2 40967 064.7790 331.3969 0172252 091.7862 270.2979 14.75401871071649 ATHENOXAT-1 1 41168U 15077C 17131.38428006 .00001839 00000-0 66759-4 0 9992 2 41168 014.9865 078.2798 0012333 225.3417 244.2892 15.11466589077463 ChubuSat-2 1 41338U 16012B 17131.61308282 .00000365 00000-0 22005-4 0 9999 2 41338 031.0044 344.5408 0013786 057.1084 303.0876 14.99719759067495 ChubuSat-3 1 41339U 16012C 17130.94739048 .00000332 00000-0 19292-4 0 9991 2 41339 031.0129 347.9698 0013514 056.7573 303.4345 14.99926681067371 Horyu-4 1 41340U 16012D 17130.93701394 .00000554 00000-0 36127-4 0 9997 2 41340 031.0063 345.7779 0014057 064.9012 295.3080 15.00559043067415 OUFTI-1 1 41458U 16025C 17131.63152674 .00002249 00000-0 12355-3 0 9999 2 41458 098.1908 167.1091 0175796 052.2518 309.4487 15.03022585057099 e-st@r-II 1 41459U 16025D 17131.58217583 .00002557 00000-0 14020-3 0 9998 2 41459 098.1880 167.0176 0176268 052.4581 309.2516 15.02866475057071 AAUSAT4 1 41460U 16025E 17131.60050259 .00002234 00000-0 12306-3 0 9995 2 41460 098.1818 167.1223 0169788 051.1320 310.4917 15.03702780057094 MinXSS 1 41474U 98067HU 17125.52237589 .05724416 12300-4 86147-3 0 9995 2 41474 051.6449 208.6967 0008167 329.0747 030.9230 16.33400422055623 CADRE 1 41475U 98067HV 17003.74787607 .12518598 12537-4 55989-3 0 9998 2 41475 51.6110 110.0165 0004040 312.3134 47.7551 16.43344525 36494 NODES 1 1 41477U 98067HX 17131.39545592 .00037630 00000-0 21821-3 0 9994 2 41477 051.6289 193.9340 0005168 344.8695 015.2150 15.78146003056251 NODES 2 1 41478U 98067HY 17131.42640193 .00035711 00000-0 21101-3 0 9991 2 41478 051.6326 194.1517 0004825 345.7711 014.3153 15.77752771056258 LO-87 1 41557U 16033B 17131.25103213 .00001296 00000-0 51713-4 0 9994 2 41557 097.4642 210.7689 0015644 133.7992 226.4543 15.26913397052798 NuSat2 1 41558U 16033C 17131.21542258 .00001249 00000-0 50147-4 0 9995 2 41558 097.4669 210.7807 0015148 132.6217 227.6302 15.26789206052782 Lapan A3 1 41603U 16040E 17131.56441203 .00000327 00000-0 18721-4 0 9998 2 41603 097.4647 193.9795 0012790 195.9185 292.8362 15.19328772049092 Swayam 1 41607U 16040J 17131.41306974 .00001408 00000-0 67229-4 0 9999 2 41607 097.4634 194.0511 0013958 198.5276 161.5453 15.20628318049013 Pratham 1 41783U 16059A 17131.36099668 .00000064 00000-0 22115-4 0 9999 2 41783 098.1700 193.1088 0032251 276.5300 083.2231 14.62829867033217 AlSat 1N 1 41789U 16059G 17131.44830460 .00000085 00000-0 25469-4 0 9995 2 41789 098.1701 193.6254 0026904 270.3956 089.4164 14.64038108033238 ScatSat 1 41790U 16059H 17131.55488345 .00000001 00000-0 11056-4 0 9995 2 41790 098.0684 183.1461 0010004 258.2967 101.7106 14.50105636032952 TY-1 1 41844U 16066D 17131.53187979 .00000998 00000-0 46691-4 0 9998 2 41844 097.4050 139.2428 0016822 013.5360 102.9355 15.21950201027767 CAS-2T 1 41845U 16066E 17131.51162506 .00000164 00000-0 35697-4 0 9995 2 41845 098.7785 146.2613 0366879 357.2996 002.6203 14.37743743026229 Pegasus-1 1 41846U 16066F 17131.61628241 .00000457 00000-0 80543-4 0 9995 2 41846 098.7808 146.1884 0369483 358.1284 001.8497 14.36987188026227 STARS-C 1 41895U 98067KR 17131.45867680 .00015134 00000-0 18991-3 0 9999 2 41895 051.6391 218.5557 0003390 183.2829 176.8142 15.59941897022253 Tancredo 1 1 41931U 98067KT 17131.53137142 .00030003 00000-0 31218-3 0 9991 2 41931 051.6377 216.7811 0003770 119.4805 240.6566 15.64311029017852 ITF-2 1 41932U 98067KU 17131.53596079 .00009038 00000-0 12332-3 0 9990 2 41932 051.6411 219.0779 0005248 126.7572 233.3903 15.58302717017823 AOBA-V3LOX3 1 41935U 98067KX 17131.40420120 .00009849 00000-0 13275-3 0 9999 2 41935 051.6408 219.6961 0004577 129.8974 230.2422 15.58515256017900 OSNSAT 1 41939U 98067KZ 17131.48622853 .00019970 00000-0 23337-3 0 9994 2 41939 051.6389 217.9864 0005226 127.2354 232.9117 15.61576323017198 EO-88 1 42017U 17008BX 17131.57332931 .00001410 00000-0 63330-4 0 9991 2 42017 097.4982 193.0971 0006417 005.0533 355.0767 15.22827420012918 /EX